Total_Precipitation_Accumulation
1.06 1.14 1.10 1.04 0.96 1.09 1.34 1.57 1.58 1.67 1.71 1.59 1.33 1.18 1.13 1.05 0.97 1.08 1.02 1.15 1.09 1.09 1.39 1.50 1.37 1.24 1.15 0.99 0.84 0.70 0.65 0.63 0.58 0.45 0.38 0.42 0.51 0.57 0.52 0.45 0.40 0.38 0.32
1.43 1.38 1.23 1.25 1.19 1.27 1.38 1.58 1.70 1.98 1.91 1.83 1.43 1.29 1.28 1.30 1.18 1.24 1.26 1.43 1.30 1.17 1.30 1.35 1.37 1.32 1.22 1.12 0.97 0.82 0.69 0.64 0.58 0.43 0.36 0.35 0.42 0.53 0.52 0.52 0.47 0.43 0.37
1.69 1.65 1.45 1.36 1.42 1.49 1.55 1.59 1.71 1.97 1.89 1.75 1.46 1.40 1.36 1.26 1.10 1.09 1.15 1.30 1.29 1.18 1.18 1.20 1.26 1.26 1.24 1.25 1.19 1.09 0.87 0.69 0.58 0.46 0.37 0.30 0.28 0.34 0.37 0.41 0.45 0.46 0.40
1.77 1.73 1.52 1.37 1.59 1.60 1.61 1.70 1.78 1.88 1.95 1.95 1.68 1.48 1.40 1.28 1.07 1.07 1.05 1.06 1.11 0.92 1.02 1.15 1.22 1.22 1.34 1.43 1.49 1.49 1.21 0.88 0.64 0.52 0.42 0.33 0.27 0.27 0.24 0.25 0.32 0.33 0.29
1.69 1.73 1.47 1.36 1.61 1.74 1.72 1.61 1.82 2.02 2.00 2.01 1.76 1.52 1.30 1.14 0.97 0.92 0.94 0.88 0.88 0.84 0.86 0.92 0.98 1.03 1.32 1.63 1.72 1.73 1.57 1.20 0.85 0.67 0.58 0.49 0.41 0.36 0.27 0.22 0.23 0.22 0.20
1.50 1.70 1.44 1.43 1.68 1.72 1.68 1.76 1.90 2.07 1.95 1.99 1.82 1.38 1.12 0.88 0.85 0.74 0.65 0.67 0.60 0.55 0.58 0.76 1.00 0.91 1.12 1.34 1.47 1.59 1.68 1.54 1.18 0.88 0.77 0.70 0.62 0.50 0.37 0.28 0.24 0.23 0.19
1.54 1.81 1.59 1.59 1.65 1.57 1.57 1.76 1.90 1.82 1.70 2.11 2.05 1.34 0.86 0.68 0.59 0.44 0.45 0.45 0.39 0.39 0.51 0.73 0.90 0.96 0.92 0.92 1.03 1.15 1.40 1.58 1.47 1.17 0.99 0.90 0.83 0.62 0.45 0.37 0.29 0.25 0.20
1.52 1.64 1.66 1.59 1.60 1.57 1.43 1.52 1.77 1.65 1.37 1.82 1.98 1.76 1.13 0.71 0.49 0.34 0.35 0.34 0.35 0.47 0.51 0.54 0.70 0.89 0.90 0.98 0.95 0.82 1.02 1.35 1.53 1.47 1.26 1.03 0.83 0.64 0.52 0.45 0.36 0.30 0.24
1.56 1.65 1.56 1.42 1.39 1.41 1.28 1.29 1.50 1.56 1.35 1.42 1.77 2.02 1.54 0.92 0.67 0.45 0.45 0.47 0.56 0.66 0.65 0.69 0.73 0.80 0.86 1.02 1.13 1.12 0.89 1.00 1.37 1.75 1.67 1.29 0.87 0.62 0.53 0.52 0.51 0.40 0.34
1.71 1.63 1.47 1.31 1.16 1.13 1.09 1.07 1.23 1.35 1.36 1.17 1.31 1.45 1.40 1.30 1.16 0.75 0.54 0.58 0.72 0.78 0.80 0.84 0.83 0.86 0.92 1.09 1.21 1.27 0.98 0.83 0.97 1.51 1.77 1.64 1.25 0.83 0.63 0.67 0.87 0.79 0.54
1.68 1.52 1.40 1.28 1.17 1.08 1.01 0.99 1.04 1.08 1.12 1.04 1.09 1.16 1.23 1.23 1.17 1.06 0.78 0.76 0.77 0.64 0.65 0.70 0.81 1.04 1.08 1.16 1.33 1.31 1.23 1.15 1.08 1.11 1.25 1.35 1.34 1.10 0.89 0.91 1.25 1.43 1.19
1.25 1.19 1.12 1.03 0.98 0.98 0.99 0.97 0.95 0.96 0.98 1.00 1.01 1.04 1.15 1.23 1.27 1.28 1.10 0.96 0.87 0.72 0.69 0.71 0.77 0.92 1.01 1.05 1.10 1.19 1.19 1.14 1.04 0.98 0.96 0.97 1.01 1.07 1.12 1.25 1.57 1.87 1.96
0.70 0.68 0.70 0.72 0.74 0.75 0.75 0.78 0.77 0.78 0.87 0.94 0.96 1.03 1.13 1.22 1.30 1.33 1.24 1.04 0.95 0.85 0.90 0.86 0.78 0.87 0.89 1.02 1.07 0.97 0.83 0.81 0.71 0.69 0.72 0.77 0.86 0.94 0.98 1.07 1.31 1.63 1.90
0.50 0.49 0.52 0.55 0.57 0.60 0.62 0.65 0.66 0.66 0.68 0.74 0.78 0.95 1.07 1.08 1.18 1.27 1.28 1.23 1.14 1.09 1.16 1.09 0.93 0.89 0.92 0.99 0.96 0.83 0.77 0.65 0.51 0.43 0.42 0.44 0.50 0.64 0.77 0.90 1.05 1.17 1.33
0.44 0.45 0.49 0.54 0.57 0.61 0.62 0.61 0.62 0.63 0.71 0.77 0.79 0.89 0.99 1.03 1.10 1.18 1.27 1.32 1.36 1.32 1.30 1.24 1.03 0.97 0.92 0.89 0.91 0.82 0.87 0.67 0.42 0.34 0.34 0.34 0.33 0.35 0.43 0.58 0.75 0.90 1.10
0.43 0.47 0.49 0.55 0.59 0.59 0.57 0.56 0.56 0.59 0.69 0.79 0.88 0.99 1.03 1.03 1.05 1.14 1.27 1.43 1.53 1.50 1.36 1.14 1.03 1.06 1.08 0.96 0.89 0.74 0.69 0.66 0.47 0.35 0.32 0.32 0.32 0.32 0.35 0.47 0.60 0.73 0.87
0.42 0.45 0.49 0.52 0.53 0.54 0.55 0.58 0.58 0.63 0.69 0.74 0.79 0.91 0.99 1.02 1.06 1.10 1.20 1.28 1.43 1.55 1.42 1.22 1.16 1.22 1.27 1.24 1.06 0.86 0.69 0.62 0.52 0.41 0.32 0.30 0.30 0.34 0.40 0.45 0.53 0.61 0.68
0.49 0.50 0.53 0.54 0.52 0.55 0.63 0.70 0.69 0.73 0.79 0.80 0.81 0.84 0.83 0.88 0.99 1.01 1.07 1.11 1.22 1.42 1.38 1.29 1.33 1.36 1.38 1.32 1.23 1.03 0.83 0.71 0.65 0.49 0.36 0.31 0.29 0.31 0.34 0.34 0.41 0.53 0.63
0.54 0.55 0.61 0.68 0.70 0.70 0.71 0.76 0.82 0.84 0.77 0.73 0.73 0.73 0.70 0.72 0.78 0.86 0.96 0.95 0.97 1.10 1.24 1.31 1.42 1.49 1.56 1.45 1.26 1.11 0.97 0.87 0.69 0.58 0.47 0.37 0.33 0.31 0.31 0.30 0.33 0.41 0.53
0.44 0.50 0.58 0.69 0.78 0.83 0.85 0.82 0.77 0.76 0.71 0.66 0.62 0.59 0.61 0.64 0.66 0.70 0.80 0.85 0.87 0.96 1.09 1.20 1.37 1.58 1.59 1.64 1.50 1.27 1.16 1.09 0.85 0.62 0.56 0.49 0.42 0.37 0.33 0.29 0.28 0.32 0.42
0.41 0.52 0.63 0.71 0.83 0.90 0.85 0.82 0.74 0.71 0.70 0.63 0.56 0.52 0.50 0.49 0.51 0.57 0.60 0.66 0.74 0.84 0.89 0.98 1.14 1.38 1.52 1.61 1.57 1.37 1.23 1.23 1.10 0.81 0.67 0.62 0.57 0.49 0.44 0.38 0.30 0.27 0.32
0.37 0.45 0.52 0.58 0.62 0.58 0.58 0.55 0.52 0.51 0.53 0.51 0.48 0.48 0.44 0.39 0.41 0.43 0.40 0.46 0.54 0.60 0.71 0.85 0.93 1.13 1.33 1.41 1.52 1.60 1.47 1.31 1.25 1.10 0.98 0.92 0.79 0.71 0.57 0.44 0.35 0.26 0.25
0.32 0.38 0.40 0.44 0.45 0.46 0.36 0.31 0.30 0.32 0.37 0.40 0.42 0.44 0.35 0.30 0.36 0.39 0.36 0.32 0.35 0.38 0.46 0.64 0.77 0.88 1.10 1.29 1.45 1.62 1.60 1.52 1.43 1.35 1.24 1.22 1.03 0.87 0.72 0.59 0.48 0.33 0.26
0.37 0.39 0.38 0.39 0.44 0.41 0.31 0.23 0.21 0.21 0.27 0.31 0.36 0.42 0.42 0.38 0.37 0.40 0.39 0.35 0.31 0.31 0.33 0.39 0.50 0.67 0.92 1.28 1.46 1.52 1.65 1.69 1.66 1.58 1.46 1.43 1.29 1.11 0.97 0.83 0.70 0.49 0.35
0.44 0.43 0.41 0.41 0.44 0.46 0.35 0.22 0.19 0.22 0.30 0.32 0.35 0.39 0.43 0.42 0.41 0.31 0.33 0.36 0.36 0.35 0.30 0.34 0.40 0.52 0.71 0.98 1.36 1.49 1.52 1.46 1.43 1.27 1.09 1.08 1.14 1.15 1.13 1.04 0.90 0.74 0.55
0.53 0.49 0.46 0.49 0.53 0.58 0.51 0.28 0.22 0.26 0.34 0.41 0.49 0.49 0.43 0.40 0.37 0.30 0.33 0.39 0.37 0.35 0.36 0.36 0.37 0.41 0.47 0.64 0.93 1.17 1.21 1.15 1.06 1.06 0.85 0.73 0.74 0.77 0.91 0.91 0.81 0.74 0.66